,

(GMT )
Munich

Weather History for EDDM - November, 2018

Change the Weather History Date:

Friday, November 9, 2018

  Actual Average Record
Temperature  
Mean Temperature 46 °F -  
Max Temperature 48 °F 45 °F 66 °F (2015)
Min Temperature 44 °F 33 °F 26 °F (2003)
Degree Days  
Heating Degree Days 19    
Moisture  
Dew Point 44 °F    
Average Humidity 92    
Maximum Humidity 100    
Minimum Humidity 87    
Precipitation  
Precipitation 0.00 in - - ()
Sea Level Pressure  
Sea Level Pressure 30.02 in    
Wind  
Wind Speed 5 mph ()    
Max Wind Speed 10 mph    
Max Gust Speed -    
Visibility 3.7 miles    
Events      
Averages and records for this station are not official NWS values.
T = Trace of Precipitation, MM = Missing Value Source: Averaged Metar Reports

Daily Weather History Graph

Daily Weather History Graph

Search for Another Location

Airport or City:

Astronomy

Nov. 09, 2018 Rise Set
Actual Time 7:10 AM CET 4:42 PM CET
Civil Twilight 6:37 AM CET 5:16 PM CET
Nautical Twilight 5:59 AM CET 5:53 PM CET
Astronomical Twilight 5:23 AM CET 6:29 PM CET
Moon 8:45 AM CET (11/9) 6:12 PM CET (11/9)
Length of Visible Light 10h 39m
Length of Day
9h 32m
Waxing Crescent, 4% of the Moon is Illuminated
Nov 9
Waxing Crescent
Nov 15
First Quarter
Nov 23
Full
Nov 30
Last Quarter
Dec 7
New

Hourly Weather History & Observations

Time (CET) Temp. Windchill Dew Point Humidity Pressure Visibility Wind Dir Wind Speed Gust Speed Precip Events Conditions
12:20 AM 46.4 °F 41.9 °F 44.6 °F 93% 30.04 in 2.5 mi East 9.2 mph - N/A   Overcast
12:50 AM 46.4 °F 42.4 °F 44.6 °F 93% 30.04 in 2.5 mi East 8.1 mph - N/A   Overcast
1:20 AM 46.4 °F 42.4 °F 44.6 °F 93% 30.04 in 2.5 mi East 8.1 mph - N/A   Overcast
1:50 AM 46.4 °F 42.9 °F 44.6 °F 93% 30.04 in 2.8 mi ESE 6.9 mph - N/A   Overcast
2:20 AM 46.4 °F 41.5 °F 44.6 °F 93% 30.04 in 2.8 mi ESE 10.4 mph - N/A   Overcast
2:50 AM 46.4 °F 43.5 °F 44.6 °F 93% 30.01 in 2.8 mi ESE 5.8 mph - N/A   Overcast
3:20 AM 46.4 °F 43.5 °F 44.6 °F 93% 30.04 in 2.8 mi SSE 5.8 mph - N/A   Overcast
3:50 AM 46.4 °F 45.2 °F 44.6 °F 93% 30.04 in 2.8 mi SSE 3.5 mph - N/A   Overcast
4:20 AM 46.4 °F 44.3 °F 44.6 °F 93% 30.04 in 2.8 mi South 4.6 mph - N/A   Overcast
4:50 AM 46.4 °F 45.2 °F 44.6 °F 93% 30.04 in 2.8 mi South 3.5 mph - N/A   Overcast
5:20 AM 46.4 °F 45.2 °F 44.6 °F 93% 30.04 in 2.8 mi SSW 3.5 mph - N/A   Overcast
5:50 AM 46.4 °F - 44.6 °F 93% 30.04 in 2.8 mi Variable 1.2 mph - N/A   Overcast
6:20 AM 46.4 °F 45.2 °F 44.6 °F 93% 30.04 in 2.8 mi South 3.5 mph - N/A   Overcast
6:50 AM 46.4 °F 45.2 °F 44.6 °F 93% 30.04 in 2.8 mi SW 3.5 mph - N/A   Overcast
7:20 AM 46.4 °F 45.2 °F 44.6 °F 93% 30.06 in 2.8 mi WSW 3.5 mph - N/A   Overcast
7:50 AM 46.4 °F 44.3 °F 44.6 °F 93% 30.06 in 2.8 mi West 4.6 mph - N/A   Overcast
8:20 AM 46.4 °F 45.2 °F 44.6 °F 93% 30.06 in 2.8 mi West 3.5 mph - N/A   Overcast
8:50 AM 46.4 °F 45.2 °F 44.6 °F 93% 30.06 in 3.1 mi West 3.5 mph - N/A   Overcast
9:20 AM 46.4 °F 45.2 °F 44.6 °F 93% 30.06 in 3.1 mi West 3.5 mph - N/A   Overcast
9:50 AM 46.4 °F 45.2 °F 44.6 °F 93% 30.06 in 3.7 mi WNW 3.5 mph - N/A   Overcast
10:20 AM 46.4 °F - 44.6 °F 93% 30.06 in 4.3 mi Variable 2.3 mph - N/A   Overcast
10:50 AM 48.2 °F - 44.6 °F 87% 30.06 in 4.3 mi Variable 2.3 mph - N/A   Overcast
11:20 AM 48.2 °F - 44.6 °F 87% 30.06 in 4.3 mi WNW 3.5 mph - N/A   Overcast
11:50 AM 48.2 °F - 44.6 °F 87% 30.06 in 4.3 mi NW 3.5 mph - N/A   Overcast
12:20 PM 48.2 °F - 44.6 °F 87% 30.04 in 4.3 mi Variable 2.3 mph - N/A   Overcast
12:50 PM 48.2 °F - 44.6 °F 87% 30.04 in 5.0 mi North 3.5 mph - N/A   Overcast
1:20 PM 48.2 °F - 44.6 °F 87% 30.04 in 5.0 mi NE 3.5 mph - N/A   Overcast
1:50 PM 48.2 °F - 44.6 °F 87% 30.01 in 5.6 mi NE 3.5 mph - N/A   Overcast
2:20 PM 48.2 °F - 44.6 °F 87% 30.01 in 5.6 mi NNE 3.5 mph - N/A   Overcast
2:50 PM 48.2 °F - 44.6 °F 87% 30.01 in 5.6 mi SE 4.6 mph - N/A   Overcast
3:20 PM 48.2 °F - 44.6 °F 87% 30.01 in 5.6 mi ESE 3.5 mph - N/A   Overcast
3:50 PM 48.2 °F - 44.6 °F 87% 30.01 in 5.6 mi East 3.5 mph - N/A   Overcast
4:20 PM 46.4 °F 44.3 °F 44.6 °F 93% 30.01 in 5.0 mi ESE 4.6 mph - N/A   Overcast
4:50 PM 46.4 °F 44.3 °F 44.6 °F 93% 30.01 in 5.0 mi East 4.6 mph - N/A   Overcast
5:20 PM 46.4 °F 44.3 °F 44.6 °F 93% 30.01 in 5.0 mi ENE 4.6 mph - N/A   Overcast
5:50 PM 46.4 °F 42.9 °F 44.6 °F 93% 30.01 in 5.0 mi ESE 6.9 mph - N/A   Overcast
6:20 PM 46.4 °F 42.9 °F 44.6 °F 93% 29.98 in 5.0 mi ESE 6.9 mph - N/A   Overcast
6:50 PM 46.4 °F 42.9 °F 44.6 °F 93% 30.01 in 3.7 mi East 6.9 mph - N/A   Overcast
7:20 PM 46.4 °F 43.5 °F 44.6 °F 93% 29.98 in 3.7 mi East 5.8 mph - N/A   Overcast
7:50 PM 44.6 °F 41.4 °F 44.6 °F 100% 29.98 in 3.7 mi ENE 5.8 mph - N/A   Overcast
8:20 PM 44.6 °F 42.2 °F 42.8 °F 93% 29.98 in 3.1 mi East 4.6 mph - N/A   Overcast
8:50 PM 44.6 °F 40.7 °F 42.8 °F 93% 29.98 in 3.1 mi East 6.9 mph - N/A   Overcast
9:20 PM 44.6 °F 41.4 °F 44.6 °F 100% 29.98 in 3.1 mi East 5.8 mph - N/A   Overcast
9:50 PM 44.6 °F 40.7 °F 42.8 °F 93% 29.98 in 2.8 mi East 6.9 mph - N/A   Overcast
10:20 PM 44.6 °F 42.2 °F 42.8 °F 93% 29.98 in 2.8 mi ESE 4.6 mph - N/A   Overcast
10:50 PM 44.6 °F 43.1 °F 42.8 °F 93% 29.98 in - ESE 3.5 mph - N/A   Overcast
11:20 PM 44.6 °F 40.7 °F 44.6 °F 100% 29.95 in 2.5 mi ESE 6.9 mph - N/A   Overcast
11:50 PM 44.6 °F 40.7 °F 44.6 °F 100% 29.95 in 2.2 mi East 6.9 mph - N/A   Overcast